Flag for U.S.A. Weather past 2 weeks in Bloomington, Illinois, U.S.A.

Now
70 °F

Clear.


Feels Like: 70 °F
Forecast: 67 / 86 °F
Wind: 10 mph from Southwest

Location: Bloomington / Normal

Current Time: Aug 2, 2015 at 4:27:43 AM

Latest Report: Aug 2, 2015 at 3:56 AM


Visibility: 10 mi

Pressure: 29.90 "Hg

Humidity: 81%

Dew point: 64 °F

Location of BloomingtonLocation

Historic Weather in Bloomington — Graph

°F

Bloomington temperature yesterday

Maximum temperature yesterday: 85 °F (at 2:56 PM)
Minimum temperature yesterday: 64 °F (at 5:56 AM)
Average temperature yesterday: 76 °F

Past Weeks' High & Low Weather Summary

 TemperatureHumidityPressure
High89 °F (Jul 18, 11:56 AM)100% (Jul 18, 3:56 AM)30.11 "Hg (Jul 18, 3:56 AM)
Low62 °F (Jul 22, 3:56 AM)32% (Jul 31, 2:56 PM)29.75 "Hg (Jul 20, 7:56 PM)
Average77 °F76%29.95 "Hg
* Reported Jul 18 2:56 AM — Aug 2 2:56 AM, Bloomington, Weather by CustomWeather, © 2015

Note: Actual official high and low records may vary slightly from our data, if they occured in-between our weather recording intervals... More about our weather records

Advertising

Bloomington weather history for previous 24 hours

 ConditionsComfort  
Time TempWeatherWind HumidityBarometerVisibility
2:56 AM
Sun, Aug 2
71 °FClear.10 mph79%29.91 "Hg10 mi
1:56 AM71 °FClear.9 mph81%29.92 "Hg10 mi
12:56 AM71 °FClear.9 mph81%29.93 "Hg10 mi
11:56 PM
Sat, Aug 1
71 °FClear.8 mph81%29.93 "Hg10 mi
10:56 PM72 °FClear.8 mph81%29.93 "Hg10 mi
9:56 PM73 °FClear.7 mph79%29.94 "Hg10 mi
8:56 PM77 °FSunny.9 mph64%29.93 "Hg10 mi
7:56 PM78 °FSunny.7 mph62%29.93 "Hg10 mi
6:56 PM82 °FSunny.10 mph53%29.94 "Hg10 mi
5:56 PM84 °FSunny.14 mph46%29.94 "Hg10 mi
4:56 PM85 °FSunny.14 mph46%29.95 "Hg10 mi
3:56 PM84 °FSunny.13 mph50%29.96 "Hg10 mi
2:56 PM85 °FSunny.12 mph49%29.97 "Hg10 mi
1:56 PM83 °FSunny.10 mph49%29.98 "Hg10 mi
12:56 PM82 °FSunny.9 mph49%30.01 "Hg10 mi
11:56 AM82 °FSunny.5 mph42%30.01 "Hg10 mi
10:56 AM82 °FSunny.6 mph42%30.02 "Hg10 mi
9:56 AM80 °FSunny.3 mph45%30.01 "Hg10 mi
8:56 AM76 °FSunny.3 mph58%30.01 "Hg10 mi
7:56 AM72 °FSunny.No wind66%30.02 "Hg10 mi
6:56 AM66 °FSunny.5 mph81%30.02 "Hg10 mi
5:56 AM64 °FClear.6 mph81%30.01 "Hg10 mi
4:56 AM65 °FClear.6 mph78%30.01 "Hg10 mi
Weather by CustomWeather, © 2015

See weather overviewHow to use our weather pages